Regional Weather Roundup
Issued by NWS Albany, NY

Current Version | Previous Version | Text Only | Print | Product List | Glossary On
Versions: 1 2 3 4 5 6 7 8 9 10 11 12 13 14 15 16 17 18 19 20 21 22 23 24 25 26 27 28 29 30 31 32 33 34 35 36 37 38 39 40 41 42 43 44 45 46 47 48 49 50
000
ASUS41 KALY 240210
RWRALY

NEW YORK STATE HOURLY WEATHER ROUNDUP
NATIONAL WEATHER SERVICE ALBANY NY
1000 PM EDT TUE JUL 23 2019

NOTE: "FAIR" INDICATES FEW OR NO CLOUDS BELOW 12,000 FEET WITH NO
SIGNIFICANT WEATHER AND/OR NO OBSTRUCTIONS TO VISIBILITY.

NYZ032-033-038>043-046>054-057>066-NYZ062>081-082-084-240300-
EAST


CITY           SKY/WX    TMP DP  RH WIND       PRES   REMARKS
ALBANY         MOCLDY    71  61  70 CALM      29.92R
GLENS FALLS    CLOUDY    67  62  84 W3        29.92R
POUGHKEEPSIE   CLOUDY    69  64  84 CALM      29.92R
NEWBURGH       MOCLDY    70  66  88 VRB5      29.94R
MONTGOMERY     MOCLDY    66  64  93 CALM      29.92R
WHITE PLAINS   MOCLDY    67  65  93 CALM      29.93R
ISLIP          LGT RAIN  68  66  93 E5        29.91F
NEW YORK CITY  LGT RAIN  71  64  78 SE10      29.91R
CENTRAL PARK   CLOUDY    70  64  81 NE5       29.94R
$$

NYZ005>009-017-018-044>046-055-056-240300-
CENTRAL


CITY           SKY/WX    TMP DP  RH WIND       PRES   REMARKS
FULTON         FAIR      61  55  81 CALM      29.94R
SYRACUSE       FAIR      66  56  70 CALM      29.95R
ROME           FAIR      65  59  81 CALM      29.95R
ELMIRA         FAIR      64  61  90 CALM      29.96R
BINGHAMTON     MOCLDY    66  57  72 NW6       29.97R
MONTICELLO     FAIR      65  62  90 CALM      29.97R
$$

NYZ026>034-041>043-087-240300-
NORTH


CITY           SKY/WX    TMP DP  RH WIND       PRES   REMARKS
WATERTOWN      FAIR      62  59  90 S6        29.93R
FORT DRUM      NOT AVBL
OGDENSBURG     FAIR      64  55  72 NE3       29.92R
MASSENA        FAIR      67  53  61 N5        29.95R
SARANAC LAKE   FAIR      55  54  96 CALM      29.97R
PLATTSBURGH    CLOUDY    69  57  65 W5        29.91R
$$

NYZ001>004-010>016-019>021-085-240300-
WEST


CITY           SKY/WX    TMP DP  RH WIND       PRES   REMARKS
NIAGARA FALLS  FAIR      66  58  75 SW6       29.95S
BUFFALO        FAIR      69  57  65 SW6       29.97R
DUNKIRK        FAIR      63  54  72 S3        29.97S
JAMESTOWN      FAIR      61  53  75 W7        30.02R
WELLSVILLE     FAIR      59  58  96 W3        30.03R
ROCHESTER      FAIR      65  57  75 SW5       29.96R
PENN YAN       FAIR      63  59  87 CALM      29.97R
$$

             KEY
       WCI = WIND CHILL INDEX
       VSB = VISIBILITY
       HX  = HEAT INDEX
$$




USA.gov is the U.S. government's official web portal to all federal, state and local government web resources and services.